Weather History for KWRI - April, 2013

Change the Weather History Date:

Thursday, April 4, 2013

  Actual Average Record
Temperature  
Mean Temperature 41 °F -  
Max Temperature 55 °F 56 °F 77 °F (2011)
Min Temperature 28 °F 36 °F 28 °F (2013)
Degree Days  
Heating Degree Days 24    
Moisture  
Dew Point 17 °F    
Average Humidity 40    
Maximum Humidity 61    
Minimum Humidity 25    
Precipitation  
Precipitation 0.00 in - - ()
Sea Level Pressure  
Sea Level Pressure 30.27 in    
Wind  
Wind Speed 6 mph (WSW)    
Max Wind Speed 17 mph    
Max Gust Speed -    
Visibility 10 miles    
Events      
Averages and records for this station are not official NWS values.
T = Trace of Precipitation, MM = Missing Value Source: NWS Daily Summary

Daily Weather History Graph

Daily Weather History Graph

Search for Another Location

Airport or City:

Trip Planner

Search our weather history database for the weather conditions in past years. The results will help you decide how hot, cold, wet, or windy it might be!

Date:

Astronomy

Apr. 04, 2013 Rise Set
Actual Time 6:37 AM EDT 7:25 PM EDT
Civil Twilight 6:09 AM EDT 7:53 PM EDT
Nautical Twilight 5:37 AM EDT 8:26 PM EDT
Astronomical Twilight 5:03 AM EDT 8:59 PM EDT
Moon 3:02 AM EDT (4/4) 1:41 PM EDT (4/4)
Length of Visible Light 13h 43m
Length of Day
12h 48m
Waning Crescent, 34% of the Moon is Illuminated
Apr 4
Waning Crescent
Apr 10
New
Apr 18
First Quarter
Apr 25
Full
May 2
Last Quarter

Hourly Weather History & Observations

Time (EDT) Temp. Windchill Dew Point Humidity Pressure Visibility Wind Dir Wind Speed Gust Speed Precip Events Conditions
12:55 AM 34.2 °F 27.5 °F 10.0 °F 37% 30.31 in 10.0 mi NW 8.1 mph - N/A   Clear
1:55 AM 32.7 °F 27.3 °F 9.9 °F 39% 30.32 in 10.0 mi WNW 5.8 mph - N/A   Clear
2:55 AM 29.8 °F 26.3 °F 11.8 °F 47% 30.33 in 10.0 mi WSW 3.5 mph - N/A   Clear
3:55 AM 29.7 °F 26.1 °F 12.4 °F 49% 30.33 in 10.0 mi WNW 3.5 mph - N/A   Clear
4:55 AM 29.8 °F 24.9 °F 11.8 °F 47% 30.34 in 10.0 mi SW 4.6 mph - N/A   Clear
5:55 AM 28.2 °F 23.1 °F 13.1 °F 53% 30.36 in 10.0 mi NW 4.6 mph - N/A   Clear
6:55 AM 28.4 °F 23.3 °F 12.9 °F 52% 30.39 in 10.0 mi West 4.6 mph - N/A   Clear
7:55 AM 33.8 °F 29.6 °F 14.5 °F 45% 30.40 in 10.0 mi NW 4.6 mph - N/A   Clear
8:55 AM 37.2 °F 32.6 °F 15.8 °F 42% 30.39 in 10.0 mi Variable 5.8 mph - N/A   Clear
9:55 AM 39.7 °F 35.6 °F 15.8 °F 38% 30.38 in 10.0 mi Variable 5.8 mph - N/A   Clear
10:55 AM 42.4 °F 40.7 °F 16.3 °F 35% 30.37 in 10.0 mi Variable 3.5 mph - N/A   Clear
11:55 AM 45.3 °F 43.0 °F 17.2 °F 33% 30.33 in 10.0 mi Variable 4.6 mph - N/A   Clear
12:55 PM 49.5 °F - 18.9 °F 30% 30.30 in 10.0 mi Variable 6.9 mph - N/A   Clear
1:55 PM 51.8 °F - 19.4 °F 28% 30.26 in 10.0 mi SW 9.2 mph - N/A   Partly Cloudy
2:55 PM 53.6 °F - 18.9 °F 26% 30.21 in 10.0 mi Variable 6.9 mph - N/A   Clear
3:55 PM 54.5 °F - 19.4 °F 25% 30.19 in 10.0 mi SW 8.1 mph - N/A   Clear
4:55 PM 52.9 °F - 17.4 °F 25% 30.17 in 10.0 mi SW 11.5 mph - N/A   Clear
5:55 PM 49.3 °F - 21.0 °F 33% 30.18 in 10.0 mi SSW 17.3 mph - N/A   Scattered Clouds
6:55 PM 46.2 °F 40.5 °F 19.9 °F 35% 30.19 in 10.0 mi SSW 12.7 mph - N/A   Partly Cloudy
7:55 PM 43.9 °F 41.3 °F 14.7 °F 31% 30.15 in 10.0 mi South 4.6 mph - N/A   Scattered Clouds
8:55 PM 41.0 °F 34.7 °F 26.1 °F 55% 30.16 in 10.0 mi South 10.4 mph - N/A   Mostly Cloudy
9:55 PM 39.7 °F 34.9 °F 22.5 °F 50% 30.15 in 10.0 mi SSW 6.9 mph - N/A   Partly Cloudy
10:55 PM 39.0 °F 35.7 °F 24.3 °F 55% 30.13 in 10.0 mi SSW 4.6 mph - N/A   Mostly Cloudy
11:55 PM 38.5 °F 35.0 °F 26.2 °F 61% 30.10 in 10.0 mi South 4.6 mph - N/A   Mostly Cloudy